| time (UTC) | temp F | wind direction | speed knots | gust knots | rain 1hr in | rain 24hr in | rain mn in | humidity % | barometer mb |
| 20260507200019 | 60 | 188 | 6.1 | 13.0 | 0.00 | 0.28 | 0.00 | 35 | 1005.9 |
| 20260507194522 | 62 | 203 | 2.6 | 9.6 | 0.00 | 0.32 | 0.00 | 37 | 1005.9 |
| 20260507193024 | 60 | 195 | 3.5 | 11.3 | 0.00 | 0.32 | 0.00 | 35 | 1006.0 |
| 20260507191515 | 61 | 188 | 2.6 | 10.4 | 0.00 | 0.32 | 0.00 | 38 | 1006.3 |
| 20260507190016 | 59 | 137 | 2.6 | 10.4 | 0.00 | 0.32 | 0.00 | 38 | 1006.3 |
| 20260507184515 | 58 | 163 | 7.8 | 12.2 | 0.00 | 0.37 | 0.00 | 35 | 1006.5 |
| 20260507183013 | 60 | 151 | 2.6 | 7.8 | 0.00 | 0.37 | 0.00 | 41 | 1006.6 |
| 20260507181510 | 58 | 180 | 3.5 | 11.3 | 0.00 | 0.37 | 0.00 | 42 | 1006.7 |
| 20260507180014 | 58 | 246 | 1.7 | 8.7 | 0.00 | 0.37 | 0.00 | 45 | 1006.9 |
| 20260507174509 | 58 | 251 | 1.7 | 13.0 | 0.00 | 0.41 | 0.00 | 43 | 1006.8 |
| 20260507173008 | 57 | 178 | 4.3 | 10.4 | 0.00 | 0.41 | 0.00 | 41 | 1006.9 |
| 20260507171509 | 57 | 234 | 3.5 | 10.4 | 0.00 | 0.41 | 0.00 | 39 | 1007.1 |
| 20260507170007 | 58 | 219 | 4.3 | 13.0 | 0.00 | 0.41 | 0.00 | 39 | 1007.1 |
| 20260507164508 | 59 | 207 | 5.2 | 14.8 | 0.00 | 0.41 | 0.00 | 39 | 1007.3 |
| 20260507163004 | 58 | 207 | 1.7 | 11.3 | 0.00 | 0.41 | 0.00 | 43 | 1007.2 |
| 20260507161504 | 59 | 244 | 4.3 | 18.2 | 0.00 | 0.41 | 0.00 | 50 | 1007.3 |
| 20260507160003 | 58 | 179 | 5.2 | 11.3 | 0.00 | 0.41 | 0.00 | 47 | 1007.3 |
| 20260507154559 | 57 | 207 | 4.3 | 10.4 | 0.00 | 0.41 | 0.00 | 50 | 1007.5 |
| 20260507153058 | 57 | 180 | 4.3 | 9.6 | 0.00 | 0.41 | 0.00 | 51 | 1007.6 |
| 20260507151558 | 55 | 200 | 2.6 | 12.2 | 0.00 | 0.41 | 0.00 | 60 | 1008.0 |
| 20260507150053 | 55 | 176 | 2.6 | 7.8 | 0.00 | 0.41 | 0.00 | 67 | 1008.0 |
| 20260507144555 | 54 | 161 | 4.3 | 8.7 | 0.00 | 0.41 | 0.00 | 65 | 1008.0 |
| 20260507143106 | 54 | 162 | 2.6 | 10.4 | 0.00 | 0.41 | 0.00 | 66 | 1007.9 |
| 20260507141606 | 55 | 265 | 3.5 | 9.6 | 0.00 | 0.41 | 0.00 | 64 | 1008.0 |
| 20260507140047 | 52 | 257 | 0.9 | 8.7 | 0.00 | 0.41 | 0.00 | 70 | 1008.0 |
| 20260507134548 | 53 | 217 | 1.7 | 7.8 | 0.00 | 0.41 | 0.00 | 69 | 1008.0 |
| 20260507133045 | 54 | 170 | 2.6 | 8.7 | 0.00 | 0.41 | 0.00 | 70 | 1008.2 |
| 20260507131552 | 53 | 172 | 2.6 | 8.7 | 0.00 | 0.41 | 0.00 | 71 | 1008.4 |
| 20260507130043 | 51 | 305 | 2.6 | 7.8 | 0.00 | 0.41 | 0.00 | 72 | 1008.4 |
| 20260507124538 | 51 | 218 | 0.9 | 6.1 | 0.00 | 0.41 | 0.00 | 73 | 1008.3 |
| 20260507123034 | 51 | 177 | 1.7 | 7.0 | 0.00 | 0.41 | 0.00 | 77 | 1008.4 |
| 20260507121531 | 50 | 181 | 2.6 | 5.2 | 0.00 | 0.41 | 0.00 | 77 | 1008.4 |
| 20260507120029 | 49 | 202 | 1.7 | 5.2 | 0.00 | 0.41 | 0.00 | 81 | 1008.4 |
| 20260507114528 | 48 | 237 | 0.9 | 7.0 | 0.00 | 0.41 | 0.00 | 82 | 1008.4 |
| 20260507113024 | 47 | 255 | 0.9 | 3.5 | 0.00 | 0.41 | 0.00 | 85 | 1008.4 |
| 20260507111523 | 46 | 217 | 0.9 | 2.6 | 0.00 | 0.41 | 0.00 | 85 | 1008.5 |
| 20260507110022 | 45 | 184 | 0.0 | 0.0 | 0.00 | 0.41 | 0.00 | 89 | 1008.1 |
| 20260507104522 | 43 | 195 | 0.0 | 1.7 | 0.00 | 0.41 | 0.00 | 92 | 1008.0 |
| 20260507103017 | 43 | 195 | 0.0 | 1.7 | 0.00 | 0.41 | 0.00 | 91 | 1008.0 |
| 20260507101516 | 43 | 228 | 0.0 | 2.6 | 0.00 | 0.41 | 0.00 | 90 | 1007.6 |
| 20260507100013 | 44 | 228 | 0.0 | 0.0 | 0.00 | 0.41 | 0.00 | 90 | 1008.2 |
| 20260507094511 | 44 | 228 | 0.0 | 2.6 | 0.00 | 0.41 | 0.00 | 91 | 1008.2 |
| 20260507093010 | 44 | 228 | 0.9 | 2.6 | 0.00 | 0.41 | 0.00 | 90 | 1008.1 |
| 20260507091513 | 45 | 172 | 0.0 | 5.2 | 0.00 | 0.41 | 0.00 | 89 | 1008.2 |
| 20260507090006 | 45 | 172 | 0.9 | 7.0 | 0.00 | 0.41 | 0.00 | 89 | 1008.1 |
| 20260507084504 | 45 | 239 | 0.9 | 5.2 | 0.00 | 0.41 | 0.00 | 89 | 1007.7 |
| 20260507083003 | 45 | 180 | 0.9 | 7.0 | 0.00 | 0.41 | 0.00 | 90 | 1007.6 |
| 20260507081501 | 45 | 181 | 0.0 | 7.0 | 0.00 | 0.41 | 0.00 | 90 | 1007.5 |
| 20260507080120 | 45 | 209 | 0.9 | 3.5 | 0.00 | 0.41 | 0.00 | 90 | 1007.6 |
| 20260507074559 | 45 | 199 | 0.9 | 3.5 | 0.00 | 0.41 | 0.00 | 91 | 1007.6 |
| 20260507073056 | 45 | 220 | 0.9 | 3.5 | 0.00 | 0.41 | 0.00 | 91 | 1007.3 |
| 20260507071554 | 45 | 176 | 0.0 | 3.5 | 0.00 | 0.41 | 0.00 | 92 | 1007.4 |
| 20260507064620 | 46 | 242 | 1.7 | 7.0 | 0.00 | 0.41 | 0.00 | 91 | 1007.0 |
| 20260507063052 | 47 | 207 | 0.9 | 7.0 | 0.00 | 0.41 | 0.00 | 92 | 1007.4 |
| 20260507061545 | 47 | 158 | 1.7 | 7.0 | 0.00 | 0.41 | 0.00 | 92 | 1007.2 |
| 20260507060106 | 47 | 192 | 0.0 | 2.6 | 0.00 | 0.41 | 0.00 | 93 | 1007.1 |
| 20260507054548 | 47 | 188 | 1.7 | 7.8 | 0.00 | 0.41 | 0.00 | 93 | 1007.2 |
| 20260507053041 | 47 | 183 | 0.9 | 3.5 | 0.00 | 0.41 | 0.00 | 93 | 1007.1 |
| 20260507051553 | 47 | 165 | 0.9 | 3.5 | 0.00 | 0.41 | 0.00 | 92 | 1006.8 |
| 20260507050045 | 47 | 215 | 2.6 | 9.6 | 0.00 | 0.41 | 0.00 | 91 | 1006.8 |
| 20260507044537 | 47 | 189 | 1.7 | 5.2 | 0.00 | 0.41 | 0.00 | 92 | 1006.6 |
| 20260507043035 | 48 | 189 | 1.7 | 8.7 | 0.00 | 0.41 | 0.00 | 92 | 1007.0 |
| 20260507041533 | 48 | 182 | 0.9 | 7.0 | 0.01 | 0.41 | 0.00 | 92 | 1007.0 |
| 20260507040030 | 48 | 177 | 1.7 | 9.6 | 0.03 | 0.41 | 0.00 | 92 | 1007.0 |
| 20260507034530 | 48 | 194 | 0.9 | 6.1 | 0.07 | 0.41 | 0.41 | 92 | 1006.7 |
| 20260507033027 | 49 | 182 | 1.7 | 5.2 | 0.08 | 0.41 | 0.41 | 92 | 1006.8 |
| 20260507031524 | 49 | 172 | 0.9 | 7.8 | 0.07 | 0.40 | 0.40 | 91 | 1006.8 |
| 20260507030027 | 51 | 173 | 2.6 | 7.8 | 0.04 | 0.37 | 0.37 | 91 | 1006.9 |
| 20260507024523 | 52 | 251 | 4.3 | 7.8 | 0.04 | 0.34 | 0.34 | 90 | 1006.8 |
| 20260507023013 | 54 | 233 | 3.5 | 7.8 | 0.07 | 0.33 | 0.33 | 92 | 1006.4 |
| 20260507021512 | 55 | 206 | 2.6 | 7.8 | 0.17 | 0.33 | 0.33 | 93 | 1006.1 |
| 20260507020012 | 56 | 322 | 1.7 | 4.3 | 0.17 | 0.33 | 0.33 | 93 | 1005.5 |
| 20260507014513 | 57 | 203 | 0.0 | 2.6 | 0.14 | 0.30 | 0.30 | 93 | 1005.5 |
| 20260507013014 | 58 | 211 | 1.7 | 7.8 | 0.10 | 0.26 | 0.26 | 92 | 1005.5 |
| 20260507011510 | 59 | 140 | 1.7 | 4.3 | 0.00 | 0.16 | 0.16 | 93 | 1004.9 |
| 20260507010010 | 59 | 149 | 1.7 | 5.2 | 0.00 | 0.16 | 0.16 | 93 | 1005.0 |
| 20260507004509 | 59 | 108 | 1.7 | 4.3 | 0.00 | 0.17 | 0.16 | 93 | 1004.9 |
| 20260507003009 | 59 | 113 | 2.6 | 5.2 | 0.00 | 0.17 | 0.16 | 93 | 1004.8 |
| 20260507001513 | 59 | 133 | 1.7 | 5.2 | 0.00 | 0.17 | 0.16 | 92 | 1004.8 |
| 20260507000008 | 59 | 107 | 2.6 | 5.2 | 0.00 | 0.17 | 0.16 | 92 | 1004.6 |
| 20260506234510 | 59 | 136 | 2.6 | 7.0 | 0.00 | 0.18 | 0.16 | 92 | 1004.5 |
| 20260506233011 | 59 | 116 | 1.7 | 4.3 | 0.00 | 0.18 | 0.16 | 92 | 1004.5 |
| 20260506231508 | 60 | 111 | 1.7 | 7.8 | 0.00 | 0.18 | 0.16 | 92 | 1004.6 |
| 20260506230017 | 60 | 121 | 2.6 | 6.1 | 0.00 | 0.18 | 0.16 | 92 | 1004.5 |
| 20260506224506 | 60 | 116 | 1.7 | 7.8 | 0.00 | 0.18 | 0.16 | 91 | 1004.5 |
| 20260506223004 | 60 | 129 | 3.5 | 8.7 | 0.00 | 0.18 | 0.16 | 91 | 1004.7 |
| 20260506221503 | 60 | 92 | 3.5 | 8.7 | 0.00 | 0.18 | 0.16 | 91 | 1004.7 |
| 20260506220005 | 60 | 159 | 3.5 | 10.4 | 0.00 | 0.18 | 0.16 | 91 | 1004.8 |
| 20260506214502 | 61 | 102 | 2.6 | 7.8 | 0.00 | 0.18 | 0.16 | 91 | 1004.7 |
| 20260506213001 | 61 | 97 | 3.5 | 10.4 | 0.00 | 0.18 | 0.16 | 91 | 1004.9 |
| 20260506211601 | 61 | 117 | 3.5 | 8.7 | 0.01 | 0.18 | 0.16 | 92 | 1004.9 |
| 20260506210106 | 61 | 128 | 2.6 | 8.7 | 0.02 | 0.18 | 0.16 | 92 | 1004.9 |
| 20260506204606 | 61 | 101 | 4.3 | 9.6 | 0.05 | 0.18 | 0.16 | 92 | 1005.0 |
| 20260506203057 | 61 | 107 | 3.5 | 11.3 | 0.06 | 0.18 | 0.16 | 92 | 1005.2 |
| 20260506201556 | 61 | 85 | 3.5 | 7.0 | 0.05 | 0.17 | 0.15 | 92 | 1005.3 |